[[{"header":{"parameterUnit":"m.s-1","parameterCategory":1,"la1":30.2991,"la2":30.254,"lo1":-89.0895,"lo2":-89.0444,"dy":0.0017,"dx":0.0017,"nx":28,"ny":28,"refTime":"2025-08-13T03:00:00:Z","depth":0,"parameterNumber":2,"parameterNumberName":"U-component_of_WINDS"},"data":[0,0,0,0,0,0,0,0,0,0,0,0,0,0,0,0,0,0,0,0,0,0,0,0,0,0,0,0,0,0,0,0,0,0,0,0,0,0,0,0,0,0,0,0,0,0,0,0,0,0,0,0,0,0,0,0,0,0,-2.0987,-2.0988,0,-2.1086,-2.1087,-2.1088,-2.1094,-2.1093,-2.1092,-2.1091,-2.1188,-2.1192,-2.1195,0,0,0,0,0,0,0,0,0,0,0,0,0,-2.0803,-2.0806,-2.0987,-2.0988,-2.099,-2.1085,-2.1087,-2.1088,-2.1095,-2.1093,-2.1092,-2.1091,-2.1187,-2.1191,-2.1196,0,0,0,0,0,0,0,0,0,0,0,0,0,-2.089,-2.0807,-2.0987,-2.1004,-2.1007,-2.1085,-2.1087,-2.1088,-2.1095,-2.1093,-2.1092,-2.109,-2.1186,-2.1191,-2.1196,-2.1263,0,0,-2.1213,-2.1215,0,0,0,0,0,0,0,0,-2.0885,-2.0897,-2.1001,-2.1003,-2.1006,-2.1076,-2.1057,-2.1147,-2.1095,-2.1061,-2.1091,-2.1089,-2.1152,-2.116,-2.1182,-2.1267,-2.1271,-2.1213,-2.1217,-2.1219,-2.1221,0,0,0,0,0,0,0,-2.0879,-2.0892,-2.1026,-2.1002,-2.1006,-2.1007,-2.1017,-2.1074,-2.1115,-2.1064,-2.1065,-2.1077,-2.1153,-2.1177,-2.1184,-2.1273,-2.1213,-2.1218,-2.1221,-2.1224,-2.1418,-2.142,0,0,0,0,0,0,-2.087,-2.0887,-2.1023,-2.1029,-2.094,-2.1011,-2.1023,-2.1055,-2.1114,-2.1122,-2.1078,-2.1077,-2.1168,-2.1178,-2.1188,-2.127,-2.1219,-2.1224,-2.1227,-2.1416,-2.1419,-2.1421,0,0,0,0,0,0,-2.0866,-2.0882,-2.1019,-2.0958,-2.0976,-2.1016,-2.1052,-2.1058,-2.1082,-2.1125,-2.1131,-2.1095,-2.1168,-2.118,-2.1245,-2.1273,-2.1226,-2.1231,-2.1414,-2.1417,-2.142,-2.1434,0,0,0,0,0,0,-2.0861,-2.088,-2.0906,-2.0959,-2.0979,-2.1074,-2.1054,-2.1061,-2.1091,-2.1091,-2.1142,-2.1149,-2.1167,-2.1236,-2.125,-2.128,-2.1236,-2.1412,-2.1415,-2.1419,-2.1431,-2.1437,-2.1442,0,0,0,0,0,-2.0854,-2.0905,-2.0908,-2.0924,-2.1013,-2.1076,-2.1088,-2.1108,-2.1094,-2.112,-2.1148,-2.1147,-2.1268,-2.1243,-2.1258,-2.129,-2.141,-2.1414,-2.1419,-2.1429,-2.1436,-2.1442,0,0,0,0,0,0,-2.0853,-2.0913,-2.0916,-2.0986,-2.1026,-2.1077,-2.1111,-2.1115,-2.1159,-2.1157,-2.118,-2.1191,-2.1255,-2.1279,-2.125,-2.1358,-2.1337,-2.1345,-2.134,-2.1347,-2.1352,-2.1345,-2.124,0,0,0,0,0,-2.0862,-2.0909,-2.0958,-2.1015,-2.1036,-2.107,-2.1098,-2.1111,-2.1153,-2.117,-2.1202,-2.1242,-2.1289,-2.132,-2.1365,-2.1435,-2.1446,-2.1465,-2.147,-2.1474,-2.148,-2.152,-2.1528,-2.1435,-2.1435,-2.1435,0,0,-2.0879,-2.0917,-2.0945,-2.1016,-2.1049,-2.1097,-2.1084,-2.1135,-2.1171,-2.1177,-2.124,-2.1266,-2.1312,-2.1379,-2.1411,-2.1401,-2.1509,-2.148,-2.1483,-2.1487,-2.1525,-2.1534,-2.1542,-2.1438,-2.1437,-2.1437,0,0,-2.0935,-2.0969,-2.102,-2.1054,-2.1104,-2.1127,-2.114,-2.1191,-2.1208,-2.1272,-2.1278,-2.1321,-2.1401,-2.1434,-2.1461,-2.1532,-2.1533,-2.1546,-2.1574,-2.1612,-2.162,-2.1626,-2.1651,-2.166,-2.1552,-2.1552,-2.1552,0,-2.0949,-2.1023,-2.1046,-2.1098,-2.1129,-2.1139,-2.1191,-2.1223,-2.1285,-2.1305,-2.1295,-2.1397,-2.1429,-2.1504,-2.1522,-2.1544,-2.1558,-2.154,-2.1617,-2.1624,-2.163,-2.1654,-2.1664,-2.1553,-2.1553,-2.1553,-2.1553,0,-2.1038,-2.1089,-2.1125,-2.1187,-2.1222,-2.1273,-2.1304,-2.1337,-2.1347,-2.1371,-2.1436,-2.1475,-2.1529,-2.1549,-2.1558,-2.1626,-2.1619,-2.1612,-2.1592,-2.164,-2.1663,-2.1673,-2.1555,-2.1555,-2.1554,-2.1554,0,0,-2.1094,-2.117,-2.1183,-2.1211,-2.1269,-2.1308,-2.1361,-2.1415,-2.1443,-2.1486,-2.153,-2.1599,-2.1594,-2.1625,-2.1639,-2.1672,-2.1726,-2.1662,-2.1663,-2.1672,-2.1803,-2.1807,-2.1817,-2.1728,-2.1729,-2.1731,-2.1799,0,-2.1156,-2.1251,-2.1275,-2.1355,-2.1403,-2.1414,-2.146,-2.1499,-2.1523,-2.1567,-2.1593,-2.1641,-2.1631,-2.165,-2.1684,-2.1712,-2.1752,-2.1707,-2.1768,-2.177,-2.1755,-2.1829,-2.1833,-2.1895,-2.1808,-2.1809,-2.181,0,-2.1241,-2.1288,-2.1373,-2.1426,-2.1446,-2.1487,-2.154,-2.1581,-2.1627,-2.1642,-2.1678,-2.1689,-2.1743,-2.1721,-2.1796,-2.1766,-2.1792,-2.181,-2.1813,-2.1818,-2.1792,-2.1836,-2.1915,-2.1924,-2.1825,-2.1824,-2.1823,0,-2.1273,-2.1357,-2.142,-2.1444,-2.1507,-2.1535,-2.1562,-2.1606,-2.1638,-2.1684,-2.1704,-2.1755,-2.1783,-2.1822,-2.1846,-2.1828,-2.1919,-2.1899,-2.1933,-2.1932,-2.1951,-2.1949,-2.2035,-2.1969,-2.1969,-2.1968,-2.1968,0,-2.1339,-2.1391,-2.1436,-2.1474,-2.1533,-2.1559,-2.1616,-2.1643,-2.1683,-2.1726,-2.1739,-2.1779,-2.1809,-2.1853,-2.1873,-2.1932,-2.1945,-2.1958,-2.1962,-2.1956,-2.1955,-2.1973,-2.1969,-2.1971,-2.197,-2.197,-2.197,0,-2.1385,-2.1417,-2.1485,-2.154,-2.1555,-2.1596,-2.1642,-2.1679,-2.1705,-2.1759,-2.1774,-2.1813,-2.1866,-2.1895,-2.196,-2.1973,-2.204,-2.2042,-2.2025,-2.2027,-2.2058,-2.2055,-2.2158,-2.2173,-2.2098,-2.2099,-2.2099,0,-2.1424,-2.1465,-2.1525,-2.1555,-2.1584,-2.1633,-2.1666,-2.1694,-2.1727,-2.1783,-2.1814,-2.1868,-2.1913,-2.1997,-2.203,-2.2081,-2.2084,-2.2117,-2.2091,-2.2085,-2.2084,-2.2081,-2.2085,-2.2121,-2.2122,-2.2122,-2.2123,0,-2.1492,-2.1506,-2.1554,-2.1607,-2.1647,-2.169,-2.1733,-2.1757,-2.1792,-2.1829,-2.1884,-2.1919,-2.1988,-2.2041,-2.2095,-2.2122,-2.2128,-2.2131,-2.2141,-2.2135,-2.2123,-2.213,-2.2036,-2.2128,-2.2127,-2.2127,-2.2127,-2.2126,-2.1535,-2.1572,-2.162,-2.1673,-2.1709,-2.1749,-2.1787,-2.1818,-2.1865,-2.1924,-2.1938,-2.1996,-2.2041,-2.2114,-2.2143,-2.2188,-2.2182,-2.2197,-2.22,-2.2203,-2.2205,-2.2117,-2.2198,-2.2198,-2.2198,-2.2198,-2.2198,0,-2.1603,-2.1635,-2.1683,-2.1744,-2.1786,-2.179,-2.1838,-2.1872,-2.1924,-2.1966,-2.2011,-2.2074,-2.2127,-2.2165,-2.2218,-2.2247,-2.2251,-2.226,-2.2258,-2.2264,-2.2208,-2.2193,-2.2256,-2.2256,-2.2256,-2.2256,-2.2256,-2.2256,-2.1643,-2.1705,-2.1726,-2.1806,-2.1838,-2.1896,-2.1923,-2.196,-2.1994,-2.2066,-2.211,-2.2135,-2.2176,-2.2233,-2.2281,-2.2291,-2.2309,-2.2318,-2.2328,-2.2274,-2.2268,-2.2262,-2.2248,-2.2322,-2.2322,-2.238,-2.2381,-2.2381]},{"header":{"parameterUnit":"m.s-1","parameterCategory":1,"la1":30.2991,"la2":30.254,"lo1":-89.0895,"lo2":-89.0444,"dy":0.0017,"dx":0.0017,"nx":28,"ny":28,"refTime":"2025-08-13T03:00:00:Z","depth":0,"parameterNumber":3,"parameterNumberName":"V-component_of_WINDS"},"data":[0,0,0,0,0,0,0,0,0,0,0,0,0,0,0,0,0,0,0,0,0,0,0,0,0,0,0,0,0,0,0,0,0,0,0,0,0,0,0,0,0,0,0,0,0,0,0,0,0,0,0,0,0,0,0,0,0,0,-0.5645,-0.5645,0,-0.5582,-0.5581,-0.558,-0.5562,-0.5563,-0.5563,-0.5563,-0.5495,-0.5493,-0.5491,0,0,0,0,0,0,0,0,0,0,0,0,0,-0.5746,-0.5745,-0.5645,-0.5645,-0.5644,-0.5582,-0.5581,-0.558,-0.5562,-0.5563,-0.5563,-0.5563,-0.5496,-0.5493,-0.5491,0,0,0,0,0,0,0,0,0,0,0,0,0,-0.5695,-0.5744,-0.5645,-0.5627,-0.5625,-0.5582,-0.5581,-0.558,-0.5562,-0.5563,-0.5563,-0.5564,-0.5497,-0.5493,-0.549,-0.546,0,0,-0.548,-0.5479,0,0,0,0,0,0,0,0,-0.5698,-0.5691,-0.5631,-0.5629,-0.5626,-0.558,-0.5592,-0.5539,-0.5562,-0.5586,-0.5563,-0.5564,-0.5523,-0.5517,-0.5504,-0.5456,-0.5454,-0.548,-0.5478,-0.5477,-0.5476,0,0,0,0,0,0,0,-0.5701,-0.5693,-0.562,-0.563,-0.5627,-0.5621,-0.5614,-0.5582,-0.5552,-0.5584,-0.5582,-0.5575,-0.5522,-0.5507,-0.5503,-0.5453,-0.548,-0.5477,-0.5475,-0.5474,-0.5373,-0.5372,0,0,0,0,0,0,-0.5708,-0.5697,-0.5622,-0.5618,-0.5664,-0.5619,-0.5611,-0.5594,-0.5552,-0.5546,-0.5575,-0.5575,-0.5513,-0.5506,-0.55,-0.546,-0.5477,-0.5474,-0.5472,-0.5374,-0.5373,-0.5372,0,0,0,0,0,0,-0.5711,-0.5702,-0.5625,-0.5657,-0.5647,-0.5616,-0.5598,-0.5593,-0.5579,-0.5546,-0.554,-0.5566,-0.5513,-0.5505,-0.5469,-0.5457,-0.5472,-0.5469,-0.5375,-0.5373,-0.5372,-0.538,0,0,0,0,0,0,-0.5714,-0.5703,-0.5692,-0.5657,-0.5645,-0.5597,-0.5597,-0.5591,-0.5574,-0.5573,-0.5536,-0.553,-0.5513,-0.5474,-0.5466,-0.5453,-0.5467,-0.5376,-0.5374,-0.5373,-0.538,-0.5379,-0.5378,0,0,0,0,0,-0.5717,-0.5697,-0.5692,-0.5683,-0.5631,-0.5596,-0.5589,-0.557,-0.5573,-0.5561,-0.5539,-0.5531,-0.546,-0.5471,-0.5462,-0.5447,-0.5376,-0.5375,-0.5373,-0.5381,-0.5379,-0.5378,0,0,0,0,0,0,-0.5731,-0.5692,-0.5686,-0.5654,-0.5628,-0.5593,-0.5578,-0.5569,-0.5542,-0.5542,-0.5518,-0.551,-0.5476,-0.5458,-0.5471,-0.5414,-0.5418,-0.5414,-0.5427,-0.5425,-0.5423,-0.5428,-0.5464,0,0,0,0,0,-0.573,-0.5706,-0.5673,-0.5647,-0.5635,-0.5608,-0.5592,-0.558,-0.5552,-0.5541,-0.5517,-0.5489,-0.546,-0.5441,-0.5413,-0.5377,-0.5368,-0.5363,-0.5361,-0.536,-0.5357,-0.5334,-0.5331,-0.5366,-0.5367,-0.5367,0,0,-0.5729,-0.5704,-0.569,-0.5649,-0.5628,-0.5602,-0.56,-0.5573,-0.5552,-0.5537,-0.5502,-0.5483,-0.545,-0.5414,-0.5397,-0.5398,-0.5345,-0.5358,-0.5358,-0.5355,-0.5332,-0.5329,-0.5326,-0.5365,-0.5366,-0.5366,0,0,-0.5712,-0.5692,-0.5668,-0.5646,-0.5614,-0.5596,-0.559,-0.5556,-0.5542,-0.5507,-0.5494,-0.5469,-0.542,-0.5397,-0.5378,-0.535,-0.5341,-0.5341,-0.5334,-0.5312,-0.5309,-0.5306,-0.5294,-0.529,-0.5338,-0.5338,-0.5338,0,-0.5714,-0.5675,-0.5656,-0.5629,-0.561,-0.5595,-0.5569,-0.5548,-0.5508,-0.5495,-0.5497,-0.5434,-0.5411,-0.5368,-0.5361,-0.5347,-0.5337,-0.5345,-0.5311,-0.5308,-0.5305,-0.5294,-0.5289,-0.5338,-0.5338,-0.5338,-0.5338,0,-0.5678,-0.5651,-0.5635,-0.5597,-0.5576,-0.555,-0.5525,-0.5506,-0.5494,-0.5475,-0.5438,-0.5409,-0.5374,-0.5363,-0.5352,-0.5317,-0.5318,-0.5316,-0.5319,-0.5303,-0.5291,-0.5286,-0.5339,-0.5338,-0.5338,-0.5338,0,0,-0.5669,-0.562,-0.5614,-0.5595,-0.5558,-0.5536,-0.5507,-0.5473,-0.5456,-0.5428,-0.5403,-0.536,-0.5357,-0.5336,-0.5322,-0.5303,-0.5279,-0.5302,-0.5301,-0.5297,-0.5237,-0.5238,-0.5233,-0.5273,-0.5272,-0.5271,-0.5239,0,-0.5647,-0.5597,-0.5578,-0.5536,-0.551,-0.5494,-0.5468,-0.5441,-0.5422,-0.5396,-0.5374,-0.5344,-0.5343,-0.533,-0.531,-0.5286,-0.5266,-0.5288,-0.5247,-0.5245,-0.5255,-0.5228,-0.5229,-0.52,-0.5234,-0.5234,-0.5233,0,-0.5615,-0.5587,-0.5543,-0.5506,-0.5494,-0.5472,-0.5438,-0.5413,-0.5381,-0.5368,-0.5344,-0.533,-0.5297,-0.5303,-0.5256,-0.5271,-0.5252,-0.5238,-0.5236,-0.5231,-0.5238,-0.522,-0.5191,-0.5186,-0.5226,-0.5227,-0.5227,0,-0.5611,-0.5562,-0.5529,-0.5514,-0.5471,-0.5455,-0.5436,-0.5405,-0.5385,-0.5354,-0.534,-0.5306,-0.5287,-0.5259,-0.5235,-0.5242,-0.519,-0.5194,-0.5176,-0.5177,-0.5166,-0.5167,-0.5132,-0.5156,-0.5156,-0.5156,-0.5156,0,-0.5588,-0.5561,-0.5527,-0.5506,-0.5475,-0.5451,-0.542,-0.54,-0.5372,-0.5345,-0.5329,-0.5304,-0.5275,-0.5245,-0.5226,-0.5189,-0.5181,-0.5168,-0.5163,-0.5169,-0.517,-0.5156,-0.5157,-0.5155,-0.5155,-0.5155,-0.5156,0,-0.5579,-0.5555,-0.5517,-0.5479,-0.5469,-0.5447,-0.5413,-0.5391,-0.5371,-0.5337,-0.5328,-0.5295,-0.526,-0.5233,-0.5187,-0.5174,-0.5134,-0.5129,-0.5145,-0.5142,-0.5125,-0.5127,-0.5079,-0.5071,-0.5102,-0.5101,-0.5101,0,-0.5566,-0.5545,-0.5504,-0.5485,-0.5466,-0.5437,-0.5416,-0.5391,-0.5369,-0.533,-0.5312,-0.5275,-0.5245,-0.5188,-0.5159,-0.5123,-0.5116,-0.5102,-0.5111,-0.5116,-0.5114,-0.5115,-0.5112,-0.5101,-0.51,-0.51,-0.51,0,-0.5544,-0.5532,-0.5503,-0.5469,-0.5444,-0.5416,-0.5388,-0.5373,-0.5343,-0.5319,-0.5282,-0.5258,-0.5211,-0.5173,-0.5134,-0.5112,-0.51,-0.5098,-0.5091,-0.5097,-0.5106,-0.5099,-0.514,-0.5099,-0.5099,-0.5099,-0.5099,-0.5099,-0.5531,-0.551,-0.5478,-0.5445,-0.5421,-0.5394,-0.5371,-0.5347,-0.5317,-0.5276,-0.5263,-0.5224,-0.519,-0.5135,-0.5113,-0.5081,-0.5081,-0.5073,-0.507,-0.5068,-0.5067,-0.5112,-0.5074,-0.5074,-0.5074,-0.5074,-0.5074,0,-0.5507,-0.5484,-0.5455,-0.5415,-0.5388,-0.538,-0.5347,-0.5325,-0.5292,-0.5261,-0.5231,-0.5187,-0.515,-0.5118,-0.5079,-0.5059,-0.5052,-0.505,-0.505,-0.5045,-0.5071,-0.5079,-0.5056,-0.5056,-0.5056,-0.5056,-0.5056,-0.5056,-0.5491,-0.5455,-0.5439,-0.539,-0.5367,-0.533,-0.5312,-0.5286,-0.5261,-0.5213,-0.5183,-0.5162,-0.5129,-0.5087,-0.5052,-0.5043,-0.5029,-0.5027,-0.5017,-0.5041,-0.5043,-0.5045,-0.5053,-0.5025,-0.5025,-0.4993,-0.4993,-0.4993]}]]